Location: Luxembourg
(49.6117°N, 6.1300°E)
Time: 00:38:00
(UTC+01:00)

ISS - Pass Details

Date: 31 January 2019
Orbit: 403 x 411 km, 51.6° (Epoch: 22 February)

Event Time Altitude Azimuth Distance (km) Brightness Sun altitude
Rises 18:07:46 0° 260° (W) 2,329 2.3 -6.7°
Reaches altitude 10° 18:09:51 10° 263° (W) 1,471 0.6 -7.0°
Maximum altitude 18:13:09 71° 347° (NNW) 437 -3.7 -7.5°
Enters shadow 18:16:20 11° 73° (ENE) 1,426 -1.8 -8.0°
